SCP
0 0 0 -0 -0 0 -0 0 0 0 0 0 0 0 0 0 0 0 0 0 0 0 0 0 0 0 0
0 0 0 0 0 0 0 0 0 0 0 0 0 0 0 0 0 0 0 0 0 0 0 0 0 0 0
0 0 0 0 0 0 0 0 0 0 0 0 0 0 0 0 0 0 0 0 0 0 0 0 0 0 0
0 0 0 0 0 0 0 0 0 0 0 0 0 0 0 0 0 0 0 0 0 0 0 0 0 0 0
0 0 0 0 0 0 0 0 0 0 0 0 0 0 0 0 0 0 0 0 0 0 0 0 0 0 0
0 0 0 0 0 0 0 0 0 0 0 0 0 0 0 0 0 0 0 0 0 0 0 0 0 0 0
0 0 0 0 0 0 0 0 0 0 0 0 0 0 0 0 0 0 0 0 0 0 0 0 0 0 0
0 0 0 0 0 0 0 0 0 0 0 0 0 0 0 0 0 0 0 0 0 0 0 0 0 0 0
0 0 0 0 0 0 0 0 0 0 0 0 0 0 0 0 0 0 0 0 0 0 0 0 0 0 0
0 0 0 0 0 0 0 0 0 0 0 0 0 0 0 0 0 0 0 0 0 0 0 0 0 0 0
0 0 0 0 0 0 0 0 0 0 0 0 0 0 0 0 0 0 0 0 0 0 0 0 0 0 0
0 0 0 0 0 0 0 0 0 0 0 0 0 0 0 0 0 0 0 0 0 0 0 0 0 0 0
0 0 0 0 0 0 0 0 0 0 0 0 0 0 0 0 0 0 0 0 0 0 0 0 0 0 0
0 0 0 0 0 0 0 0 0 0 0 0 0 0 0 0 0 0 0 0 0 0 0 0 0 0 0
0 0 0 0 0 0 0 0 0 0 0 0 0 0 0 0 0 0 0 0 0 0 0 0 0 0 0
0 0 0 0 0 0 0 0 0 0 0 0 0 0 0 0 0 0 0 0 0 0 0 0 0 0 0
Wind_Speed_500mb
42 42 42 41 38 35 31 29 27 28 27 23 19 19 20 21 20 15 16 16 17 17 16 15 14 12 13
37 43 44 43 40 38 36 33 32 35 33 29 24 22 21 21 21 19 18 17 16 15 15 16 15 13 14
33 38 42 45 45 42 39 37 34 38 40 36 31 29 27 26 23 22 20 19 19 19 19 20 19 17 17
33 36 41 44 44 44 40 39 38 42 43 43 37 34 34 32 30 28 25 23 24 23 23 22 22 21 20
33 33 38 43 46 43 46 42 41 42 43 45 43 39 40 37 34 34 32 27 29 28 27 26 26 25 23
32 31 31 38 44 48 49 45 44 44 44 48 46 46 44 42 38 38 35 31 33 33 32 31 30 28 26
34 33 29 29 33 41 43 45 49 52 46 49 49 48 48 44 42 41 40 36 37 38 37 36 35 33 30
30 30 32 28 24 25 29 36 42 47 49 50 49 53 51 48 44 40 39 41 41 43 42 41 40 39 37
28 28 28 29 26 22 20 23 28 31 37 44 47 49 49 52 50 44 42 44 46 48 49 48 47 46 43
20 22 25 26 24 24 22 21 26 30 37 39 44 47 49 56 51 49 46 47 46 49 52 54 55 54 51
8 9 15 19 20 19 17 18 22 26 30 37 39 40 41 45 48 49 47 47 49 52 53 54 57 58 58
8 3 5 8 11 14 13 18 22 24 26 28 29 34 38 43 45 48 44 46 52 52 54 57 59 61 61
5 3 3 0 1 5 8 14 17 20 25 24 19 19 22 27 29 43 42 42 46 51 54 59 65 66 67
35 27 20 14 8 3 5 9 16 21 21 21 23 25 24 27 27 33 39 42 43 44 52 58 62 63 66
52 42 30 20 10 5 8 8 14 17 20 24 24 26 28 29 34 35 36 37 43 45 47 49 27 19 35
49 47 45 43 43 39 32 27 25 23 19 18 20 25 30 34 35 38 37 39 39 43 48 53 57 64 70
Wind_Direction_500mb
235 239 241 241 241 242 240 240 248 258 264 270 265 285 300 298 302 282 273 269 267 268 263 258 254 253 259
237 237 241 244 243 242 241 240 248 255 263 266 266 275 288 300 301 290 279 273 267 257 254 258 264 265 267
247 244 243 243 242 238 237 240 248 256 261 265 269 275 282 292 294 286 277 270 263 254 254 261 264 265 269
258 252 247 247 239 234 235 236 237 247 248 262 265 268 274 280 288 284 274 268 259 254 256 260 265 270 272
264 262 257 255 253 242 236 240 241 245 250 253 257 263 266 272 280 284 276 269 259 254 256 261 266 271 274
260 265 267 263 261 255 240 241 242 246 250 254 256 262 268 274 277 281 279 268 259 256 255 256 261 265 269
260 262 268 274 270 264 260 254 252 254 253 258 260 262 267 271 278 280 280 273 264 258 257 259 263 266 269
243 252 263 274 283 282 267 261 260 260 259 262 264 265 267 272 278 282 279 277 269 262 258 259 261 264 267
244 236 248 264 274 283 293 280 272 268 267 270 265 265 270 273 275 276 282 278 274 269 265 262 262 262 263
236 240 238 251 261 274 283 285 274 270 271 272 272 274 275 274 275 274 278 282 278 273 269 266 264 263 263
202 213 219 233 246 252 260 268 262 266 271 275 276 275 275 274 273 272 277 282 286 284 277 271 268 266 264
73 144 192 225 235 247 266 270 265 262 262 272 275 277 274 271 270 274 273 284 287 288 284 277 273 269 266
112 119 95 301 206 225 277 278 278 280 282 279 283 293 298 290 289 277 272 280 283 288 287 284 283 281 276
59 59 61 57 48 43 234 285 294 298 291 284 273 273 283 287 287 290 296 294 286 286 287 292 293 289 284
54 51 46 42 41 28 342 305 317 305 297 292 288 280 285 290 279 277 282 290 288 285 284 281 288 288 303
43 41 40 39 40 38 31 12 352 344 333 312 288 285 280 284 286 288 289 288 289 287 282 281 281 279 281
Wind_Speed_850mb
42 42 42 41 38 35 31 29 27 28 27 23 19 19 20 21 20 15 16 16 17 17 16 15 14 12 13
37 43 44 43 40 38 36 33 32 35 33 29 24 22 21 21 21 19 18 17 16 15 15 16 15 13 14
33 38 42 45 45 42 39 37 34 38 40 36 31 29 27 26 23 22 20 19 19 19 19 20 19 17 17
33 36 41 44 44 44 40 39 38 42 43 43 37 34 34 32 30 28 25 23 24 23 23 22 22 21 20
33 33 38 43 46 43 46 42 41 42 43 45 43 39 40 37 34 34 32 27 29 28 27 26 26 25 23
32 31 31 38 44 48 49 45 44 44 44 48 46 46 44 42 38 38 35 31 33 33 32 31 30 28 26
34 33 29 29 33 41 43 45 49 52 46 49 49 48 48 44 42 41 40 36 37 38 37 36 35 33 30
30 30 32 28 24 25 29 36 42 47 49 50 49 53 51 48 44 40 39 41 41 43 42 41 40 39 37
28 28 28 29 26 22 20 23 28 31 37 44 47 49 49 52 50 44 42 44 46 48 49 48 47 46 43
20 22 25 26 24 24 22 21 26 30 37 39 44 47 49 56 51 49 46 47 46 49 52 54 55 54 51
8 9 15 19 20 19 17 18 22 26 30 37 39 40 41 45 48 49 47 47 49 52 53 54 57 58 58
8 3 5 8 11 14 13 18 22 24 26 28 29 34 38 43 45 48 44 46 52 52 54 57 59 61 61
5 3 3 0 1 5 8 14 17 20 25 24 19 19 22 27 29 43 42 42 46 51 54 59 65 66 67
35 27 20 14 8 3 5 9 16 21 21 21 23 25 24 27 27 33 39 42 43 44 52 58 62 63 66
52 42 30 20 10 5 8 8 14 17 20 24 24 26 28 29 34 35 36 37 43 45 47 49 27 19 35
49 47 45 43 43 39 32 27 25 23 19 18 20 25 30 34 35 38 37 39 39 43 48 53 57 64 70
Wind_Direction_850mb
235 239 241 241 241 242 240 240 248 258 264 270 265 285 300 298 302 282 273 269 267 268 263 258 254 253 259
237 237 241 244 243 242 241 240 248 255 263 266 266 275 288 300 301 290 279 273 267 257 254 258 264 265 267
247 244 243 243 242 238 237 240 248 256 261 265 269 275 282 292 294 286 277 270 263 254 254 261 264 265 269
258 252 247 247 239 234 235 236 237 247 248 262 265 268 274 280 288 284 274 268 259 254 256 260 265 270 272
264 262 257 255 253 242 236 240 241 245 250 253 257 263 266 272 280 284 276 269 259 254 256 261 266 271 274
260 265 267 263 261 255 240 241 242 246 250 254 256 262 268 274 277 281 279 268 259 256 255 256 261 265 269
260 262 268 274 270 264 260 254 252 254 253 258 260 262 267 271 278 280 280 273 264 258 257 259 263 266 269
243 252 263 274 283 282 267 261 260 260 259 262 264 265 267 272 278 282 279 277 269 262 258 259 261 264 267
244 236 248 264 274 283 293 280 272 268 267 270 265 265 270 273 275 276 282 278 274 269 265 262 262 262 263
236 240 238 251 261 274 283 285 274 270 271 272 272 274 275 274 275 274 278 282 278 273 269 266 264 263 263
202 213 219 233 246 252 260 268 262 266 271 275 276 275 275 274 273 272 277 282 286 284 277 271 268 266 264
73 144 192 225 235 247 266 270 265 262 262 272 275 277 274 271 270 274 273 284 287 288 284 277 273 269 266
112 119 95 301 206 225 277 278 278 280 282 279 283 293 298 290 289 277 272 280 283 288 287 284 283 281 276
59 59 61 57 48 43 234 285 294 298 291 284 273 273 283 287 287 290 296 294 286 286 287 292 293 289 284
54 51 46 42 41 28 342 305 317 305 297 292 288 280 285 290 279 277 282 290 288 285 284 281 288 288 303
43 41 40 39 40 38 31 12 352 344 333 312 288 285 280 284 286 288 289 288 289 287 282 281 281 279 281